STARLINK-1122, 44949

Orbit data source: Space-Track

STARLINK-1122, 44949 is a payload satellite owned by SpaceX/Seattle (US) in LEO that was launched on Tue, 07 Jan 2020 UTC via an FALCON 9 launch vehicle from the Air Force Eastern Test Range (AFETR). Payload-class satellites include a variety of spacecraft equipped with specific instruments for various scientific and technological missions. These include communications satellites like Starlink; space stations such as the ISS; scientific satellites like the Hubble; Earth observation satellites from companies like Planet Labs, Umbra, and HawkEye 360; GPS; miniature CubeSats for education and research; and military/defense satellites.

Loading next visibility...
Identifier
44949, 2020-001AM
Orbit
LEO
Last TLE update
16 hours ago
Origin
Manufacturer
SpaceX/Seattle
Mission
Operational Commercial Communications
Bus & Motor
STARLINK, Unknown motor
Mass
260 kg wet, ~248 kg dry
Launch date (UTC)
2020-01-07 (5 years ago)
Launch vehicle
FALCON 9
Launch site
Air Force Eastern Test Range (AFETR)
Object type
Payload
Rocket body
Debris
Shape & HBR
Box + 1 Pan, 8.86 m
Radar Cross Section
13.562 m², Large (>1 m²)

Expand to show TLE details & history

TLE from 16 hours ago
0 STARLINK-1122
1 44949U 20001AM  25128.62897107  .00000492  00000-0  51899-4 0  9992
2 44949  53.0555 256.0830 0001593 122.5828 237.5315 15.06402480294141
Epoch: 2025-05-08T15:05Z
Definitive object data (Epoch: 2025-05-08T15:05:43.1Z)
Latitude
-0.00002°
Longitude
162.95668°
Altitude
548.676 km
Speed
7.588 km/s
True Right ascension
17h 04m 19s
True Declination
0° 00' 00"
Sunlit
Object was in full shadow at TLE epoch
Visualization TLE readout
Latitude
-12.48696°
Longitude
150.45654°
Altitude
551.379 km
Speed
7.586 km/s
Apparent Right ascension
18h 32m 58s
Apparent Declination
-65° 29' 41"
Sunlit
Object is in full shadow
Visualization observer readout
Local Sidereal Time
15:05:53
Azimuth
159.307° S
Elevation
-22.769°
Doppler factor
1
Orbital elements
Apogee altitude
548.578 km
Perigee altitude
546.371 km
Semi-major axis
6,925.612 km
Eccentricity
0.0001593
Inclination
53.0555°
RAAN
256.083°
Arg. of periapsis
122.5828°
True anomaly
237.5161°
Mean anomaly
237.5315°
Eccentric anomaly
237.5238°
Mean motion
3.76579 °/min
BSTAR
0.000051899
Orbital period
95.6 mins
Loading maneuver chart data...
Loading SW <> Apogee altitude chart data...

STARLINK-1122 Visibility forecast

Observer location: undefined°, undefined°

Span
Click to sort rows by Start time (UTC) header in descending order
Start Az.
Max El. time (UTC)
Max El. Az.
Max El.
End time (UTC)
End Az.
7 mins2025-05-09 10:20:57.943Z193.699° SSW2025-05-09 10:23:57.943Z146.262° SSE27.14°2025-05-09 10:27:57.943Z69.089° E
5 mins2025-05-09 12:01:57.943Z275.376° WNW2025-05-09 12:03:57.943Z330.955° NNW31.923°2025-05-09 12:06:57.943Z33.309° NE
6 mins2025-05-09 17:02:57.943Z330.038° NNW2025-05-09 17:05:57.943Z39.609° NE30.624°2025-05-09 17:08:57.943Z95.932° ESE
5 mins2025-05-09 18:42:57.943Z280.803° WNW2025-05-09 18:44:57.943Z236.212° WSW29.095°2025-05-09 18:47:57.943Z169.739° S
|